This is the latest recevied weather packets stored in our database for station/object WK7G. If no packets are shown the sender has not sent any weather packets the latest 10 day(s).
| Time | Temp. | Humidity | Pressure | Rain* | Wind** | Luminosity | Snow |
|---|---|---|---|---|---|---|---|
| 1778021038 | 12.78° C | 32% | 1003.3 hPa | 0 mm | - | 262 W/m² | - |
| 1778020735 | 12.22° C | 33% | 1003.7 hPa | 0 mm | - | 571 W/m² | - |
| 1778020432 | 11.67° C | 32% | 1003.3 hPa | 0 mm | - | 568 W/m² | - |
| 1778020128 | 11.67° C | 31% | 1003.6 hPa | 0 mm | - | 568 W/m² | - |
| 1778019824 | 12.78° C | 30% | 1003.3 hPa | 0 mm | - | 595 W/m² | - |
| 1778019521 | 12.78° C | 32% | 1003.3 hPa | 0 mm | - | 595 W/m² | - |
| 1778019218 | 12.22° C | 29% | 1003.6 hPa | 0 mm | - | 615 W/m² | - |
| 1778018915 | 12.78° C | 29% | 1003.7 hPa | 0 mm | - | 599 W/m² | - |
| 1778018612 | 12.78° C | 30% | 1003.6 hPa | 0 mm | - | 600 W/m² | - |
| 1778018310 | 12.78° C | 30% | 1003.8 hPa | 0 mm | - | 615 W/m² | - |
| 1778018008 | 12.78° C | 31% | 1003.7 hPa | 0 mm | - | 637 W/m² | - |
| 1778017705 | 12.78° C | 32% | 1003.8 hPa | 0 mm | - | 714 W/m² | - |
| 1778017403 | 12.78° C | 31% | 1003.4 hPa | 0 mm | - | 645 W/m² | - |
| 1778017099 | 13.33° C | 30% | 1003.6 hPa | 0 mm | - | 650 W/m² | - |
| 1778016797 | 12.22° C | 30% | 1003.7 hPa | 0 mm | - | 643 W/m² | - |
| 1778016493 | 13.33° C | 33% | 1003.4 hPa | 0 mm | - | 657 W/m² | - |
| 1778016190 | 13.33° C | 34% | 1003.4 hPa | 0 mm | - | 674 W/m² | - |
| 1778015886 | 12.78° C | 32% | 1003.4 hPa | 0 mm | - | 179 W/m² | - |
| 1778015584 | 12.22° C | 33% | 1003.4 hPa | 0 mm | - | 715 W/m² | - |
| 1778015280 | 13.33° C | 32% | 1003.6 hPa | 0 mm | - | 688 W/m² | - |
| 1778014978 | 12.78° C | 34% | 1003.6 hPa | 0 mm | - | 697 W/m² | - |
| 1778014674 | 13.33° C | 32% | 1003.7 hPa | 0 mm | - | 671 W/m² | - |
| 1778014373 | 12.78° C | 31% | 1003.7 hPa | 0 mm | - | 666 W/m² | - |
| 1778014069 | 13.33° C | 29% | 1003.7 hPa | 0 mm | - | 693 W/m² | - |
| 1778013767 | 12.22° C | 31% | 1003.4 hPa | 0 mm | - | 723 W/m² | - |
* Rain latest hour (hover to see other rain measurements)
** Current wind speed in m/s (hover to see current wind gust speed)